Location: Saratoga Springs
(43.0831°N, 73.7850°W)
Time: 18:06:06
(UTC-04:00)

Vanguard 2 - Pass Details

Date: 17 April 2024
Orbit: 553 x 2914 km, 32.9° (Epoch: 19 May)

Event Time Altitude Azimuth Distance (km) Brightness Sun altitude
Rises 04:30:14 0° 245° (WSW) 6,379 - -17.2°
Reaches altitude 10° 04:34:20 10° 241° (WSW) 5,538 - -16.6°
Exits shadow 04:37:39 19° 237° (WSW) 4,889 10.9 -16.1°
Maximum altitude 04:51:08 56° 170° (S) 3,250 10.5 -14.0°
Drops below altitude 10° 05:06:14 10° 98° (E) 5,039 12.6 -11.5°
Sets 05:09:45 0° 94° (E) 5,795 13.1 -11.0°
